Location: Acequia del Cap
(41.7000°N, 0.6167°E)
Time: 01:17:33
(UTC+00:00)

IRS-1C - Pass Details

Date: 07 August 2020
Orbit: 816 x 817 km, 98.8° (Epoch: 22 September)

Event Time Altitude Azimuth Distance (km) Brightness Sun altitude
Rises 02:28:57 0° 15° (NNE) 3,354 8.4 -22.9°
Reaches altitude 10° 02:31:19 10° 17° (NNE) 2,417 7.5 -22.7°
Maximum altitude 02:36:40 75° 103° (ESE) 847 4.2 -22.0°
Enters shadow 02:38:41 39° 180° (S) 1,202 4.6 -21.8°
